SL-8 R/B

Satellite information

Favourite Embed

Satellite Type and Status

ROCKET BODYIN ORBIT

Key statistics

Satellite SL-8 R/B at a glance.

Uptime

19708

Days in orbit

Revolutions

≈ 13.7

Per day

Orbit

LEO

Low Earth Orbit

Inclination

74.0

Latest

Satellite identification and parameters

Extended collection of information and parameters for SL-8 R/B.

Object identification

Identified? True

Debris? False

Object name: SL-8 R/B

International designator: 1971-046B

Object number (NORAD): 5239

Object ID (CCSDS): 5239

Country: COMMONWEALTH OF INDEPENDENT STATES (CIS)

Current information (Y/N): Y

RCS size: LARGE

Orbital parameters

Period: 104.804 minutes

Inclination: 74.0264 deg

SMA: 7363.408 km

Apoapsis: 992.693 km

Periapsis: 977.854 km

RAAN: 42.5403 deg

Eccentricy: 0.0010076

Argument of periapsis: 72.0243 deg

Mean anomaly: 344.6155 deg

Mean motion: 13.73992705 rev/day

Mean motion (dot): 0.00000059 rev/day2

B* drag term: 0.000086646 1/REarth

Two-line elements (TLE)

Creation date: May 6, 2025, 3:54 a.m.

Reference frame: TEME

Reference center: EARTH

Epoch: May 5, 2025, 8:02 p.m. UTC

TLE line 0: 0 SL-8 R/B

TLE line 1: 1 05239U 71046B 25125.83493664 .00000059 00000-0 86646-4 0 9993

TLE line 2: 2 05239 74.0264 42.5403 0010076 72.0243 344.6155 13.73992705704807

Live tracking on map

Real-time ground track for satellite SL-8 R/B.

In-orbit conjunctions

A list of the most updated potential collisions computed for object SL-8 R/B.

Target Orbit TCA Probability of collision Miss distance Type
DELTA 1 DEB SSO 2024-07-17 09:33:27 0.0001478397 473.0 (m) DEBRIS
NIMBUS 2 DEB SSO 2024-06-25 21:20:07 0.0003257078 66.0 (m) DEBRIS

Associated space launch

The first soviet navigation system called Tsiklon consisted of Zaliv satellites in low earth orbit.

SL-8 R/B was lifted into orbit during the mission ‘Kosmos-3M | Zaliv 8’, on board a Kosmos-3M space rocket.

The launch took place on May 22, 1971, 12:51 a.m. from 132/1 (132L).

For more information about the launch, click the button.

Launch to space Kosmos-3M | Zaliv 8
Kosmos-3M | Zaliv 8

Agency: N/A

Status: Launch Successful

Launch date: May 22, 1971, 12:51 a.m. UTC

Rocket: Kosmos-3M

Launch pad: 132/1 (132L)

Location: Plesetsk Cosmodrome, Russian Federation

...

Latest news about this satellite

There are no fresh news available about this satellite. Check back as we update our databases every day.


Newsletter sign-up

Weekly statistics, charts and insights to help you stay on top of the space industry.